Total_Precipitation_Accumulation
0.65 0.64 0.71 0.81 0.87 0.92 0.91 0.83 0.77 0.75 0.77 0.84 0.95 0.95 0.93 0.91 0.87 0.84 0.81 0.79 0.78 0.78 0.80 0.85 0.84 0.84 0.89 0.84 0.78 0.73 0.72 0.78 0.75 0.38 0.29 0.31 0.43 0.51 0.52 0.48 0.48 0.45 0.38
0.60 0.71 0.70 0.75 0.86 0.89 0.83 0.80 0.82 0.79 0.77 0.80 0.89 1.00 1.00 0.97 0.92 0.90 0.90 0.94 0.99 0.95 0.88 0.88 0.89 0.90 0.93 0.93 0.92 0.83 0.72 0.65 0.67 0.52 0.35 0.36 0.42 0.52 0.57 0.54 0.50 0.46 0.40
0.50 0.64 0.74 0.78 0.84 0.90 0.84 0.77 0.80 0.83 0.81 0.80 0.88 1.01 1.07 1.08 1.04 0.95 0.94 0.99 1.09 1.15 1.13 1.10 1.01 0.98 1.00 0.96 0.97 0.93 0.82 0.70 0.64 0.62 0.46 0.38 0.42 0.50 0.62 0.63 0.55 0.50 0.45
0.37 0.54 0.65 0.74 0.81 0.85 0.87 0.84 0.82 0.82 0.83 0.83 0.83 0.91 1.01 1.11 1.20 1.21 1.20 1.14 1.15 1.19 1.22 1.23 1.19 1.18 1.13 1.07 1.06 1.01 0.96 0.93 0.84 0.81 0.68 0.53 0.49 0.52 0.67 0.76 0.69 0.57 0.51
0.28 0.39 0.54 0.64 0.75 0.83 0.88 0.90 0.92 0.92 0.85 0.84 0.84 0.82 0.88 1.13 1.50 1.49 1.40 1.32 1.19 1.10 1.05 1.06 1.13 1.25 1.29 1.35 1.38 1.28 1.23 1.28 1.21 1.12 0.95 0.78 0.65 0.68 0.77 0.81 0.88 0.77 0.64
0.26 0.28 0.41 0.57 0.70 0.78 0.84 0.93 0.94 0.96 0.96 0.91 0.87 0.82 0.84 1.04 1.46 1.51 1.24 1.03 0.91 0.89 0.89 0.84 0.86 1.04 1.13 1.23 1.35 1.35 1.39 1.53 1.57 1.47 1.24 1.02 0.76 0.70 0.77 0.93 1.07 1.13 0.98
0.21 0.23 0.30 0.40 0.57 0.68 0.77 0.87 0.99 1.00 0.98 0.97 0.89 0.81 0.75 0.82 1.20 1.29 1.08 0.82 0.71 0.68 0.70 0.70 0.72 0.80 0.93 0.92 1.05 1.11 1.18 1.33 1.51 1.58 1.51 1.15 0.88 0.73 0.89 1.07 1.11 1.18 1.06
0.19 0.19 0.22 0.28 0.41 0.56 0.71 0.80 0.91 1.01 1.01 0.95 0.90 0.83 0.78 0.73 1.04 1.20 1.05 0.76 0.65 0.59 0.58 0.57 0.56 0.62 0.75 0.89 0.98 0.97 0.93 1.02 1.29 1.48 1.60 1.40 1.15 1.01 1.15 1.40 1.52 1.52 1.32
0.18 0.18 0.17 0.20 0.30 0.44 0.58 0.71 0.81 0.93 0.97 0.94 0.87 0.80 0.78 0.75 0.93 1.23 1.17 0.81 0.67 0.58 0.56 0.56 0.51 0.49 0.70 0.90 0.91 0.85 0.76 0.79 0.96 1.23 1.42 1.46 1.46 1.51 1.60 1.86 2.02 1.97 1.80
0.16 0.15 0.15 0.17 0.22 0.33 0.46 0.59 0.74 0.86 0.92 0.92 0.90 0.82 0.76 0.72 0.85 1.20 1.35 0.91 0.71 0.62 0.57 0.55 0.61 0.63 0.77 0.83 0.79 0.82 0.84 0.75 0.73 0.81 0.90 0.98 1.06 1.16 1.41 1.66 1.83 1.92 1.90
0.16 0.15 0.13 0.14 0.18 0.26 0.40 0.53 0.70 0.82 0.91 0.91 0.86 0.85 0.76 0.72 0.73 1.00 1.36 1.11 0.80 0.68 0.64 0.60 0.57 0.68 0.72 0.74 0.77 0.77 0.87 0.81 0.76 0.85 0.86 0.82 0.86 0.98 1.11 1.35 1.62 1.80 1.92
0.16 0.15 0.14 0.14 0.16 0.24 0.39 0.52 0.65 0.79 0.92 0.93 0.87 0.89 0.87 0.79 0.77 0.92 1.14 1.17 0.96 0.73 0.64 0.55 0.56 0.67 0.72 0.77 0.75 0.79 0.85 0.83 0.79 0.80 0.76 0.73 0.78 0.87 0.98 1.15 1.37 1.54 1.62
0.16 0.15 0.15 0.16 0.18 0.23 0.34 0.49 0.68 0.78 0.88 0.94 0.86 0.85 0.91 0.90 0.88 1.02 1.01 1.03 1.02 0.86 0.81 0.80 0.73 0.75 0.77 0.72 0.73 0.75 0.73 0.71 0.76 0.77 0.69 0.63 0.66 0.78 0.87 0.98 1.13 1.32 1.45
0.17 0.16 0.16 0.19 0.23 0.25 0.33 0.44 0.62 0.77 0.86 0.95 0.88 0.79 0.83 0.92 1.05 1.17 1.08 0.98 1.01 0.99 0.96 0.95 0.90 0.86 0.77 0.71 0.69 0.63 0.58 0.63 0.67 0.67 0.61 0.55 0.57 0.67 0.79 0.91 1.06 1.22 1.42
0.19 0.18 0.18 0.22 0.26 0.30 0.37 0.45 0.55 0.65 0.81 0.96 0.88 0.81 0.90 1.07 1.18 1.29 1.18 1.07 1.09 1.10 1.05 1.00 0.90 0.87 0.85 0.75 0.64 0.56 0.54 0.59 0.60 0.55 0.56 0.57 0.58 0.65 0.72 0.82 1.02 1.18 1.34
0.22 0.21 0.23 0.27 0.28 0.31 0.40 0.50 0.59 0.63 0.70 0.72 0.78 0.83 0.82 1.02 1.09 1.03 0.99 0.95 1.02 1.11 1.05 0.97 0.80 0.71 0.71 0.67 0.62 0.58 0.54 0.53 0.50 0.49 0.55 0.58 0.61 0.67 0.73 0.79 0.95 1.13 1.23
0.26 0.26 0.28 0.30 0.29 0.31 0.37 0.49 0.61 0.67 0.73 0.73 0.73 0.77 0.80 0.92 0.96 0.95 0.93 0.87 0.86 0.86 0.84 0.74 0.64 0.57 0.54 0.54 0.55 0.52 0.49 0.47 0.48 0.51 0.52 0.52 0.56 0.62 0.68 0.75 0.84 0.97 1.09
0.29 0.32 0.35 0.34 0.32 0.34 0.40 0.49 0.60 0.70 0.78 0.81 0.82 0.84 0.85 0.86 0.89 0.92 0.95 0.97 0.96 0.83 0.70 0.65 0.61 0.56 0.53 0.52 0.52 0.51 0.49 0.48 0.51 0.52 0.50 0.48 0.52 0.59 0.64 0.67 0.73 0.86 0.98
0.31 0.34 0.38 0.40 0.37 0.38 0.43 0.52 0.60 0.66 0.71 0.76 0.82 0.97 1.04 1.01 0.98 0.99 0.95 0.84 0.77 0.70 0.64 0.60 0.59 0.60 0.59 0.55 0.51 0.50 0.51 0.50 0.49 0.51 0.49 0.46 0.48 0.56 0.59 0.60 0.67 0.78 0.90
0.31 0.39 0.43 0.44 0.43 0.44 0.48 0.54 0.61 0.68 0.70 0.73 0.75 0.82 1.00 1.08 1.04 1.03 0.95 0.80 0.70 0.63 0.59 0.59 0.57 0.60 0.62 0.60 0.56 0.55 0.55 0.53 0.50 0.51 0.47 0.43 0.44 0.50 0.54 0.56 0.62 0.69 0.75
0.35 0.38 0.45 0.45 0.45 0.49 0.54 0.59 0.65 0.72 0.72 0.71 0.68 0.71 0.91 0.96 0.87 0.81 0.84 0.80 0.72 0.66 0.61 0.61 0.60 0.60 0.61 0.60 0.59 0.58 0.57 0.53 0.49 0.48 0.45 0.40 0.41 0.45 0.47 0.51 0.54 0.57 0.63
0.39 0.41 0.45 0.47 0.50 0.55 0.60 0.63 0.68 0.73 0.71 0.70 0.70 0.75 0.83 0.73 0.67 0.66 0.70 0.73 0.71 0.67 0.63 0.65 0.64 0.60 0.60 0.62 0.62 0.63 0.61 0.55 0.49 0.47 0.45 0.41 0.39 0.40 0.40 0.42 0.45 0.49 0.56
0.41 0.46 0.51 0.52 0.54 0.61 0.65 0.62 0.66 0.71 0.72 0.71 0.71 0.73 0.76 0.73 0.66 0.62 0.65 0.68 0.70 0.69 0.64 0.64 0.65 0.60 0.56 0.56 0.58 0.63 0.64 0.57 0.50 0.48 0.50 0.46 0.41 0.38 0.37 0.37 0.37 0.43 0.52
0.44 0.49 0.56 0.59 0.59 0.60 0.64 0.66 0.67 0.72 0.76 0.75 0.72 0.71 0.74 0.73 0.68 0.62 0.61 0.63 0.68 0.67 0.62 0.63 0.62 0.57 0.53 0.52 0.51 0.52 0.53 0.54 0.55 0.55 0.52 0.49 0.45 0.40 0.40 0.40 0.37 0.40 0.48
0.48 0.51 0.58 0.64 0.66 0.66 0.68 0.69 0.70 0.74 0.78 0.75 0.73 0.72 0.70 0.71 0.70 0.65 0.60 0.61 0.64 0.62 0.56 0.58 0.60 0.58 0.52 0.48 0.44 0.43 0.49 0.56 0.61 0.67 0.72 0.68 0.55 0.44 0.43 0.42 0.40 0.41 0.47
0.49 0.52 0.60 0.66 0.68 0.70 0.73 0.75 0.74 0.75 0.77 0.74 0.72 0.72 0.72 0.73 0.72 0.68 0.64 0.64 0.66 0.63 0.58 0.56 0.56 0.55 0.50 0.46 0.43 0.44 0.48 0.53 0.60 0.68 0.78 0.83 0.68 0.52 0.48 0.47 0.43 0.44 0.48